Location: Haliburton Scout Reserve
(45.0900°N, 78.3200°W)
Time: 11:27:27
(UTC-05:00)

N. Korean satellite - Pass Details

Date: 04 December 2021
Orbit: 447 x 491 km, 97.3° (Epoch: 23 January)

Event Time Altitude Azimuth Distance (km) Brightness Sun altitude
Rises 06:06:28 0° 3° (N) 2,468 10.0 -15.1°
Reaches altitude 10° 06:08:39 10° 353° (N) 1,587 8.9 -14.7°
Maximum altitude 06:11:41 31° 289° (WNW) 804 7.1 -14.2°
Drops below altitude 10° 06:14:42 10° 225° (SW) 1,571 8.9 -13.7°
Sets 06:16:51 0° 215° (SW) 2,438 10.0 -13.3°
